Regional Weather Roundup
Issued by NWS

Home | Current Version | Previous Version | Text Only | Print | Product List | Glossary Off
Versions: 1 2 3 4 5 6 7 8 9 10 11 12 13 14 15 16 17 18 19 20 21 22 23 24 25 26 27 28 29 30 31 32 33 34 35 36 37 38 39 40 41 42 43 44 45 46 47 48 49 50

000
ASUS45 KCYS 051910
RWRWY

WYOMING REGIONAL WEATHER ROUNDUP
NATIONAL WEATHER SERVICE CHEYENNE WY
100 PM MDT SUN JUL 05 2015

NOTE:  "FAIR" INDICATES FEW OR NO CLOUDS BELOW 12,000 FEET
WITH NO SIGNIFICANT WEATHER AND/OR OBSTRUCTIONS TO VISIBILITY.

WYZ001-052000-
YELLOWSTONE NATIONAL PARK

CITY           SKY/WX    TMP DP  RH WIND       PRES   REMARKS
LK YELLOWSTONE   N/A     59  48  67 VRB5      30.25S
W YELLOWSTONE  NOT AVBL

$$
WYZ002>013-054>058-071-098>099-052000-
NORTHERN WYOMING

CITY           SKY/WX    TMP DP  RH WIND       PRES   REMARKS
JACKSON        CLOUDY    66  55  68 S12       30.17S
CODY           CLOUDY    57  52  82 N16       30.12R
GREYBULL       LGT RAIN  67  54  63 NW22      30.02R
WORLAND        PTSUNNY   68  54  60 NW8       30.06R HAZE
SHERIDAN       CLOUDY    62  55  77 NW15      30.09R
BUFFALO        CLOUDY    60  54  80 NW15G30   30.12R
GILLETTE       CLOUDY    65  58  78 NW20      30.03S
HULETT         MOCLDY    72  61  68 NE9       30.01R
NEWCASTLE      FAIR      81  55  41 MISG      29.90R

$$
WYZ014>020-022>026-101>103-052000-
CENTRAL WYOMING

CITY           SKY/WX    TMP DP  RH WIND       PRES   REMARKS
BIG PINEY      LGT RAIN  60  55  83 N8        30.23S
PINEDALE       RAIN      57  55  94 NW14      30.24S
DUBOIS         LGT RAIN  59  50  72 W9        30.21R
LANDER         PTSUNNY   73  53  49 E8        30.07R
RIVERTON       LGT RAIN  70  54  56 N13       30.07R
CASPER         FAIR      72  55  55 N17       30.07R
DOUGLAS        FAIR      74  58  57 N22G29    30.01R

$$
WYZ021-027>030-104>119-052000-
SOUTHERN WYOMING

CITY           SKY/WX    TMP DP  RH WIND       PRES   REMARKS
EVANSTON       CLOUDY    59  56  89 S7        30.24S
KEMMERER       LGT RAIN  59  54  82 NW5       30.25R
FORT BRIDGER   LGT RAIN  59  59 100 W7        30.27R
ROCK SPRINGS   LGT RAIN  65  53  65 W8        30.20R
DIXON          RAIN      66  58  75 W3        30.21S
RAWLINS        CLOUDY    66  53  63 SW23G29   30.16F
SARATOGA       MOCLDY    72  54  53 W17       30.19S
LARAMIE        PTSUNNY   78  47  33 NW3G18    30.11F
CHEYENNE       TSTM      73  58  59 S12       30.04R
TORRINGTON     FAIR      93  52  24 W9        29.86F HX  90
PINE BLUFFS    FAIR      90  50  25 NW5G17    29.96F

$$



USA.gov is the U.S. government's official web portal to all federal, state and local government web resources and services.